Lid_Strength_Index
1 0 -1 -1 -1 -1 -1 -1 -1 -2 -2 -1 -1 -2 -2 -2 -2 -2 -2 -2 -2 -2 -2 -2 -2 -2 -2 -2 -2 -2 -2 -2 -1 -2 -2 -2 -2 -2 -2 -2 -2 -1 -1
-0 -0 -1 -1 -2 -1 -1 -1 -2 -2 -2 -1 -1 -2 -2 -2 -2 -2 -2 -2 -2 -2 -2 -2 -2 -2 -2 -2 -2 -2 -2 -1 -2 -2 -2 -2 -2 -2 -2 -2 -2 -1 -2
-0 -1 -1 -1 -1 -1 -2 -2 -2 -2 -2 -2 -1 -2 -2 -2 -2 -2 -2 -2 -2 -2 -2 -2 -2 -2 -2 -2 -2 -2 -2 -2 -2 -2 -2 -1 -1 -2 -2 -2 -2 -2 -2
-0 -1 -1 -1 -2 -2 -2 -2 -2 -2 -2 -2 -1 -2 -2 -2 -2 -2 -2 -2 -2 -2 -2 -3 -2 -2 -2 -2 -2 -1 -1 -2 -1 -1 0 0 -0 -2 -2 -2 -2 -2 -2
-0 -0 -1 -1 -2 -2 -2 -2 -2 -2 -2 -2 -1 -2 -2 -2 -2 -2 -2 -2 -2 -2 -2 -2 -2 -1 -1 -1 -2 -1 -1 -1 -0 1 2 1 1 -1 -2 -2 -2 -2 -2
0 -0 -0 -1 -2 -2 -2 -2 -2 -2 -2 -2 -1 -2 -2 -2 -2 -2 -2 -2 -2 -2 -2 -1 -1 -1 -1 -1 -2 -2 -1 -1 1 2 1 1 1 -1 -1 -1 -1 -1 -2
0 -0 -0 -1 -1 -2 -2 -2 -2 -2 -2 -2 -1 -2 -2 -2 -2 -2 -2 -2 -2 -2 -2 -2 -0 0 0 -0 -0 -1 -1 -0 3 3 2 1 0 -2 -2 -1 -1 -1 -1
0 -0 -0 1 0 -1 -2 -2 -2 -2 -2 -2 -2 -2 -2 -2 -2 -2 -2 -2 -2 -2 -2 -2 -0 1 1 1 1 1 1 2 5 5 4 3 -2 -2 -2 -2 -2 -2 -2
7 4 1 0 1 2 0 -1 -1 -2 -2 -2 -2 -2 -2 -2 -2 -2 -2 -2 -2 -2 -2 -2 -1 0 1 1 2 1 2 3 8 6 3 3 -2 -2 -2 -2 -2 -2 -2
10 9 7 6 1 0 1 2 0 -0 -1 -1 -1 -1 -0 -1 -1 -1 -1 -2 -2 -2 -2 -2 -1 1 2 2 2 3 4 5 9 8 6 3 -1 -1 -2 -2 -2 -2 -2
10 9 8 8 7 2 0 1 2 1 1 1 1 1 1 -0 -1 -0 -0 -1 -2 -2 -2 -2 -1 1 2 2 2 4 6 9 9 9 7 1 1 0 -0 -1 -2 -2 -2
10 9 8 8 8 6 2 1 -0 0 0 0 0 1 0 -0 -0 -0 1 0 -1 -1 -2 -2 -1 0 2 5 6 5 9 9 9 8 6 1 1 0 0 -0 -1 -2 -2
8 6 5 4 5 8 5 1 0 1 1 1 -0 0 0 0 1 1 2 1 0 1 1 1 2 2 4 4 5 6 7 8 9 8 5 2 1 -0 -1 -1 -0 -0 -1
7 7 6 5 4 4 7 -0 1 2 2 2 2 0 1 1 2 2 0 1 0 -0 2 3 3 3 4 3 4 5 6 7 8 8 7 2 1 -0 -1 -1 -1 -0 0
8 8 6 5 4 3 1 1 3 3 4 3 3 3 2 1 2 2 2 3 2 1 2 4 4 4 5 4 4 5 5 5 6 7 6 3 2 1 0 -0 -0 -0 -1
7 8 7 6 3 1 3 3 4 4 4 4 4 4 3 3 3 3 3 4 3 3 3 4 4 5 6 5 5 5 6 6 6 7 7 6 3 3 2 1 2 1 0
8 7 7 6 5 4 5 4 5 4 4 5 5 5 5 4 5 5 5 5 4 4 5 5 7 7 8 8 8 6 6 7 7 8 8 9 9 7 5 3 4 3 2
8 8 8 7 7 7 5 6 5 6 6 5 5 5 6 6 6 7 8 8 8 7 7 9 9 10 10 9 9 8 8 8 8 9 10 11 11 11 9 6 6 6 4
9 9 9 8 8 8 7 8 8 8 8 8 7 7 7 8 8 9 9 10 9 9 9 11 12 12 12 10 8 9 9 9 9 11 12 12 12 13 13 9 9 8 6
9 9 9 8 8 8 9 9 9 10 11 11 10 10 10 10 10 11 12 12 11 11 12 12 14 14 14 12 9 10 11 11 11 13 14 14 13 14 13 13 13 12 8
10 10 10 10 9 9 9 10 10 12 12 12 12 12 13 12 12 13 13 14 13 14 14 13 14 15 15 14 11 11 12 13 14 14 15 15 14 14 14 14 14 14 12
10 10 10 10 9 9 9 11 12 13 14 14 13 14 14 14 14 14 14 15 15 15 15 15 15 15 16 16 13 13 14 12 14 15 16 15 16 15 15 14 14 13 13
10 10 10 10 9 10 11 13 14 14 14 15 15 15 15 14 14 14 15 15 15 15 16 16 16 16 17 16 16 15 18 19 18 14 17 16 16 16 16 15 14 14 13
10 10 10 10 12 12 12 13 14 15 16 16 16 16 16 15 15 15 15 15 16 16 16 16 16 17 17 18 17 16 17 18 19 20 18 17 16 16 16 16 15 14 13
11 11 11 12 12 12 13 13 14 16 16 16 17 17 17 17 16 16 16 16 16 16 16 17 17 17 17 18 18 18 18 18 19 19 20 19 17 17 16 15 15 15 14
13 13 12 12 13 13 13 14 15 16 17 17 17 17 18 17 17 17 17 17 17 17 17 17 18 17 18 18 18 18 18 19 19 19 20 19 19 17 16 15 15 15 14